Theta_e
311 312 312 313 313 314 314 314 314 314 314 313 313 312 311 311 311 314 318 317 317 316 308 313 313 313 313 317 317 318 318 319 321 323 324 328 332 331 331 333 335 340 338 349 357
310 311 311 312 312 312 313 313 313 313 313 313 313 312 310 311 314 317 317 316 315 313 312 312 313 313 314 317 318 318 318 318 320 322 324 325 328 330 333 331 336 340 333 352 357
310 310 311 311 311 311 311 311 311 312 312 312 312 311 310 311 319 322 315 316 314 312 311 313 313 314 315 317 317 318 318 319 319 321 323 324 326 328 329 334 335 339 334 345 353
309 310 310 311 311 310 310 310 311 311 311 311 311 311 310 314 325 321 310 312 312 314 313 314 313 313 314 316 318 317 318 318 318 319 320 322 325 327 328 333 334 335 332 334 343
308 306 307 309 310 310 310 310 310 310 310 310 310 310 312 319 320 319 313 313 316 317 317 317 315 314 314 315 317 318 317 317 317 318 319 321 324 325 327 328 334 335 332 333 334
305 305 306 307 308 309 310 310 310 310 310 310 310 310 313 320 318 320 317 320 319 319 319 318 318 316 315 315 317 318 318 317 318 317 318 319 322 323 324 327 332 334 335 334 334
305 305 306 307 307 308 309 309 309 309 309 309 311 313 315 320 318 317 317 320 318 320 321 318 316 317 315 314 315 316 317 318 318 318 317 318 317 319 324 327 329 334 334 333 336
306 307 307 307 308 307 308 308 308 308 309 312 313 314 317 317 317 318 319 320 320 320 319 317 314 316 316 316 315 315 316 317 318 317 318 318 318 318 320 326 328 329 332 334 334
307 306 307 307 307 307 307 308 308 310 312 311 314 314 321 317 317 318 318 318 319 319 319 316 314 315 316 315 317 317 316 316 316 317 317 317 317 318 320 322 327 329 331 334 335
306 306 307 306 306 307 307 307 310 311 312 314 314 317 317 321 319 317 316 316 319 320 315 314 314 316 316 316 317 318 317 316 317 317 317 317 317 318 319 321 325 328 329 331 335
305 306 305 305 306 306 307 309 317 316 314 320 320 320 321 319 318 318 316 317 318 317 315 314 315 316 315 316 316 317 318 319 318 317 317 317 317 317 318 320 321 325 329 330 332
304 305 305 305 306 306 308 312 314 318 320 319 320 320 320 320 321 319 317 319 316 316 314 314 315 316 316 316 316 317 318 320 320 319 318 318 317 318 318 319 321 323 326 327 330
304 304 305 305 305 310 313 314 314 314 321 319 320 322 322 321 322 321 318 318 315 315 314 315 315 315 316 317 317 317 319 319 320 319 321 319 319 319 318 318 320 322 323 323 326
303 303 304 305 308 312 309 311 313 317 323 317 320 321 321 322 322 322 318 318 316 315 314 315 316 316 316 317 317 318 318 318 319 321 319 320 320 319 319 319 320 321 322 324 329
303 303 303 303 306 309 310 311 314 318 319 316 321 321 322 323 323 321 319 317 318 316 315 314 315 316 316 316 316 317 319 319 319 320 321 321 322 323 322 320 321 323 325 327 325
302 302 302 306 308 309 310 310 313 321 319 317 322 324 323 324 324 322 322 319 318 319 317 315 315 316 318 316 316 318 319 320 320 320 320 321 324 324 325 326 323 324 324 324 323
301 301 302 305 310 311 311 313 315 316 314 316 317 323 324 324 324 324 324 322 320 321 321 316 316 318 318 318 317 319 321 322 321 321 320 320 323 327 329 328 326 327 328 327 325
301 303 306 310 311 310 313 316 316 312 314 315 316 323 326 325 324 323 325 324 320 320 321 321 320 319 318 318 320 320 321 321 323 321 319 319 322 326 326 324 328 328 328 327 327
302 307 309 310 311 312 316 319 315 314 314 314 316 317 319 325 326 325 326 324 322 321 321 322 321 318 318 319 320 322 321 321 322 326 325 322 325 326 326 327 328 328 328 328 328
304 308 310 311 313 313 317 316 314 314 314 314 316 321 324 323 324 320 325 325 323 321 321 323 324 318 318 319 319 320 323 324 325 331 333 327 326 326 328 328 328 329 329 328 326
306 310 314 315 313 314 318 314 314 314 314 315 316 322 324 325 326 324 322 325 324 322 321 322 324 322 318 318 319 320 324 326 327 326 329 330 331 329 329 328 329 329 327 326 325
306 310 313 313 315 317 318 316 317 319 318 321 319 320 325 324 323 321 326 325 320 322 321 322 325 327 321 318 318 320 323 326 336 332 329 331 331 326 329 327 328 328 326 325 323
307 309 308 310 317 316 316 318 316 320 318 318 319 321 322 324 324 322 320 319 323 326 323 326 325 332 328 329 325 324 324 324 329 331 329 332 333 327 330 328 327 326 324 323 322
308 309 309 316 316 316 317 314 317 315 318 318 320 323 323 323 321 324 322 320 324 326 327 326 325 329 332 327 327 325 324 324 327 330 331 330 329 328 327 326 325 325 324 323 322
307 309 310 315 313 313 314 314 315 319 316 317 322 322 322 324 323 322 317 320 325 325 323 325 328 327 329 326 327 327 323 325 323 322 324 323 328 327 327 325 325 324 323 323 322
307 308 307 310 310 313 314 316 315 315 317 318 321 321 323 319 323 320 317 319 326 326 326 327 328 327 328 324 326 328 325 326 326 324 323 322 327 327 325 325 325 323 322 322 320
304 305 307 307 310 311 314 315 314 316 315 314 317 319 319 317 318 319 317 318 323 327 329 331 328 328 328 326 324 325 325 324 323 321 321 321 321 323 323 322 322 320 320 319 318
Wind_Speed
19 19 19 18 17 17 17 17 16 15 15 15 16 16 16 18 22 19 23 20 8 25 11 9 12 17 19 17 20 20 17 22 29 27 23 22 13 14 20 13 6 1 7 7 6
20 19 18 19 19 19 19 19 18 17 17 16 17 18 18 17 22 29 30 24 26 18 15 18 16 17 16 17 18 20 19 29 23 24 21 24 19 12 17 14 9 7 5 1 8
20 19 18 19 20 20 20 20 19 18 17 18 18 18 19 15 19 24 6 31 26 21 19 17 18 15 19 16 21 22 24 21 24 25 20 24 19 12 22 21 17 12 6 3 7
21 21 22 20 20 21 21 21 20 20 18 17 17 16 17 12 8 9 11 11 13 16 17 17 17 18 19 22 19 24 24 23 23 21 23 21 18 22 21 21 17 12 6 6 10
23 22 20 22 23 22 21 21 21 20 19 17 16 12 11 12 20 11 8 9 14 18 20 17 18 19 21 20 20 21 22 20 21 24 23 15 22 22 24 24 11 15 11 9 10
23 24 23 22 21 22 22 22 21 21 21 19 17 11 12 21 16 16 13 16 16 20 20 20 14 16 18 21 19 20 18 19 20 20 24 22 22 24 26 26 17 18 16 13 9
25 25 24 25 23 21 22 21 22 23 23 23 17 14 17 25 8 11 15 21 22 22 17 20 21 14 17 14 18 17 20 17 21 20 21 23 27 32 23 24 25 13 19 17 10
29 27 25 25 23 21 22 23 24 24 22 19 16 14 11 13 21 21 15 19 18 17 18 13 19 16 18 13 11 16 20 19 20 21 20 20 28 27 29 27 29 22 16 21 19
29 28 25 25 23 22 23 24 27 17 9 5 9 13 10 6 24 29 25 19 17 16 14 17 17 17 17 16 16 17 17 22 20 20 20 25 31 25 25 26 24 27 20 19 16
30 29 29 28 26 24 25 26 16 8 5 7 5 8 11 15 17 24 26 26 16 14 13 15 13 17 17 16 17 17 19 16 19 18 22 26 27 25 26 25 27 26 24 21 22
31 28 30 29 27 25 27 15 5 6 10 11 14 11 9 10 11 18 27 24 20 18 17 22 17 20 24 23 20 17 14 19 14 17 19 22 25 23 25 23 30 26 21 22 24
27 26 28 29 29 31 16 6 12 11 16 26 27 24 30 10 13 17 27 19 18 21 23 15 23 23 21 20 20 19 16 14 14 13 18 21 24 23 24 26 30 22 21 23 22
23 22 25 27 31 13 10 17 17 18 10 21 27 28 27 25 20 23 28 27 23 25 25 20 19 22 18 17 19 19 19 15 16 11 14 17 23 20 22 26 28 26 25 29 23
30 30 29 29 19 10 20 11 7 7 9 20 22 20 29 23 30 21 34 26 16 24 25 23 21 20 21 22 20 20 18 16 17 16 14 6 13 21 24 24 26 25 24 19 20
34 33 32 20 23 11 11 7 7 4 8 11 16 5 12 29 11 31 35 28 23 21 19 22 21 19 21 21 20 18 17 19 16 17 18 7 6 22 12 23 25 19 21 21 18
37 38 31 24 21 25 18 10 8 8 14 9 8 13 17 26 31 27 28 29 23 22 21 22 19 21 17 20 20 20 17 15 15 15 15 21 7 9 7 13 18 20 15 1 10
45 41 39 25 14 4 12 10 9 11 9 19 17 17 16 17 27 25 33 29 26 23 23 21 23 17 18 18 23 19 16 12 13 14 15 19 15 8 5 11 18 17 9 5 3
46 42 26 21 20 18 11 11 19 13 26 27 16 18 11 7 19 26 29 27 31 26 14 20 21 21 17 23 20 20 20 15 20 13 15 17 12 10 18 14 13 13 12 10 11
43 24 22 18 13 14 10 14 21 22 25 26 23 18 22 7 9 15 16 27 30 30 23 16 21 23 19 17 20 18 20 23 18 12 7 9 14 11 14 16 16 16 15 13 14
28 28 26 7 10 12 10 22 27 26 24 25 18 20 14 7 8 6 8 16 23 32 24 14 12 16 23 18 19 17 15 13 12 9 11 7 7 5 21 19 18 16 16 14 14
20 8 7 4 10 5 12 21 24 23 22 24 19 19 10 1 6 12 9 17 28 31 23 17 13 17 14 21 21 18 11 11 16 8 11 6 5 8 12 20 19 18 16 15 14
10 7 11 12 4 5 12 21 13 19 14 9 10 16 17 4 5 5 6 9 32 25 27 24 9 12 18 17 21 18 11 13 10 7 10 10 4 10 18 18 17 18 16 14 14
6 14 20 20 7 11 10 18 11 14 10 9 12 16 10 14 7 11 10 14 25 17 27 21 8 10 6 9 9 14 12 8 4 5 10 7 3 8 15 14 14 16 14 13 12
6 8 10 3 6 14 13 15 12 7 10 10 7 15 4 7 5 4 6 5 17 30 19 14 13 17 9 6 16 19 17 13 8 4 10 4 1 11 7 9 13 13 11 11 10
4 6 10 7 13 17 16 14 14 10 8 3 10 8 8 6 11 4 2 7 22 3 15 15 12 10 9 4 4 11 16 11 14 12 10 5 14 17 14 6 6 10 5 7 6
5 4 4 16 16 20 15 12 8 11 10 11 9 6 6 5 6 6 6 9 10 12 17 8 10 13 8 8 10 9 12 17 15 13 13 8 9 12 3 12 5 5 2 2 4
15 13 5 10 13 13 12 18 19 11 7 6 10 5 8 6 7 4 5 5 6 9 12 15 11 11 10 11 8 4 9 10 6 4 4 7 3 14 11 3 4 1 3 3 8
Wind_Direction
337 334 332 331 328 326 324 321 318 318 317 315 313 313 310 303 301 279 256 241 224 236 237 249 226 215 223 233 229 220 241 239 241 238 248 254 199 206 226 259 236 163 352 314 170
337 337 331 327 324 320 317 316 314 312 310 310 309 312 313 303 295 275 259 250 236 234 210 224 215 204 211 218 218 224 229 238 242 252 257 257 250 217 233 203 201 206 34 320 123
340 337 332 329 327 325 321 317 314 310 307 305 306 308 314 312 290 264 269 215 237 227 216 229 242 212 223 220 218 213 241 243 242 259 256 266 245 221 236 208 217 206 110 28 18
337 334 331 328 323 321 320 317 314 309 304 300 301 306 310 295 267 96 122 161 205 195 207 227 233 217 229 226 224 228 236 241 260 262 247 263 275 255 243 245 228 146 139 84 128
336 336 329 324 323 322 321 317 313 309 304 299 297 300 306 244 248 252 205 189 172 183 204 212 219 222 226 229 231 237 246 244 244 248 254 251 244 253 256 254 190 169 164 138 111
338 337 332 328 321 319 317 313 310 305 302 293 292 281 257 260 264 226 209 188 195 200 212 218 224 228 240 242 240 235 242 249 256 234 242 243 239 241 243 254 206 192 188 190 168
340 334 331 327 320 316 315 312 308 303 297 289 275 248 255 241 262 228 217 203 209 205 215 225 239 252 233 245 248 250 258 231 240 249 236 237 239 244 246 247 246 218 214 208 182
336 334 330 325 318 315 312 308 303 302 294 282 257 215 251 244 236 238 209 197 202 211 227 240 231 249 233 237 236 242 238 246 234 231 238 253 249 232 240 237 244 243 222 239 178
330 328 324 321 319 315 311 308 304 301 285 272 175 206 256 205 221 214 212 207 205 214 222 233 222 228 222 229 236 228 235 231 246 236 220 226 247 252 250 227 240 240 235 235 202
327 327 324 324 321 320 315 313 301 257 217 202 282 210 250 236 206 207 206 214 194 193 201 199 204 217 222 213 226 229 220 238 255 220 234 237 243 244 247 246 242 230 241 236 224
328 326 323 323 321 318 319 317 206 190 215 215 194 237 274 213 147 191 187 184 198 192 193 198 207 209 210 217 233 266 241 240 242 251 241 246 239 249 239 237 244 240 230 229 237
329 328 326 323 317 315 295 250 285 312 289 224 250 237 256 268 203 180 180 181 199 201 207 181 216 216 226 209 228 242 251 255 259 252 246 247 246 243 246 236 242 233 240 243 234
329 328 324 322 321 305 249 262 283 303 270 267 237 227 232 221 222 182 186 201 193 207 202 207 213 225 210 217 216 224 238 244 260 260 270 257 263 238 233 240 237 223 228 241 230
329 329 330 326 306 333 287 299 284 266 277 272 212 240 217 216 224 206 195 201 197 212 214 221 226 195 215 218 214 219 220 247 262 271 266 292 278 226 230 229 229 229 225 227 233
328 326 322 318 295 280 291 310 313 225 276 322 136 121 207 202 175 217 183 207 211 211 215 210 225 206 211 214 217 230 225 219 233 254 268 240 232 281 252 218 218 208 218 220 231
323 319 316 308 267 262 264 277 266 237 250 261 178 192 212 202 227 189 187 215 221 219 208 225 206 229 215 214 220 219 237 249 232 237 248 255 183 249 252 297 217 194 202 256 257
322 316 305 278 256 293 223 219 228 234 278 250 254 213 228 190 214 225 189 196 212 215 213 205 224 211 210 209 208 216 222 224 227 231 238 252 197 146 127 312 240 116 117 133 145
324 316 294 259 244 254 239 222 244 249 240 259 276 287 162 316 208 227 198 195 212 216 211 199 208 200 198 216 210 208 215 225 215 220 228 213 261 143 166 215 108 103 106 113 103
327 316 296 271 231 212 225 228 246 250 262 277 284 281 271 159 139 4 237 206 202 215 219 214 215 194 208 219 228 205 217 234 255 304 252 266 152 152 146 146 133 126 119 115 109
316 300 275 218 197 207 230 250 266 271 263 270 270 292 253 269 157 170 288 243 234 208 223 214 237 200 196 201 230 240 245 247 242 199 276 225 312 166 163 154 138 134 124 121 119
310 300 80 135 150 221 237 250 254 254 256 275 267 241 278 234 222 182 212 278 231 208 200 211 228 209 184 205 215 223 182 253 265 290 252 149 232 256 267 149 146 135 132 133 129
306 289 145 162 228 234 244 267 327 291 293 282 283 265 273 185 189 232 241 239 303 192 197 199 233 184 205 197 219 253 276 192 234 252 278 292 140 141 299 135 131 132 131 127 121
287 288 275 218 258 266 270 270 287 261 294 310 267 279 138 192 215 218 236 254 271 277 195 189 205 174 207 289 215 219 220 266 48 332 195 258 75 158 188 119 128 121 122 129 121
293 297 315 216 289 303 312 309 287 309 278 273 248 282 192 176 224 269 256 331 289 261 182 194 212 196 207 186 196 205 207 206 151 86 260 208 62 325 24 115 123 128 138 134 116
275 301 0 321 321 310 303 288 316 359 326 30 269 250 199 231 202 198 191 247 265 176 148 167 205 183 129 204 136 266 201 212 231 230 244 301 189 206 200 193 195 129 150 130 126
299 331 298 296 320 330 319 306 343 336 324 334 314 40 231 176 222 163 191 226 186 164 174 166 202 206 171 152 107 270 203 181 215 202 217 137 129 147 178 200 155 155 136 193 133
329 321 298 308 327 325 313 335 322 10 21 286 305 350 38 24 347 160 160 273 293 137 177 196 150 158 182 198 194 229 181 191 195 228 236 227 12 133 138 193 167 130 79 15 48